Location: Wald
(31.7579°N, 86.6655°W)
Time: 20:58:20
(UTC+00:00)

OAO 2 Rocket - Pass Details

Date: 14 July 2020
Orbit: 676 x 746 km, 35.0° (Epoch: 13 August)

Event Time Altitude Azimuth Distance (km) Brightness Sun altitude
Rises 01:49:43 0° 286° (WNW) 3,123 8.2 -11.1°
Reaches altitude 10° 01:52:08 10° 286° (WNW) 2,212 7.2 -11.5°
Maximum altitude 01:57:21 87° 199° (SSW) 737 3.4 -12.4°
Enters shadow 02:01:23 18° 109° (ESE) 1,772 4.8 -13.1°
